Regional Weather Roundup
Issued by NWS

Home | Current Version | Previous Version | Text Only | Print | Product List | Glossary On
Versions: 1 2 3 4 5 6 7 8 9 10 11 12 13 14 15 16 17 18 19 20 21 22 23 24 25 26 27 28 29 30 31 32 33 34 35 36 37 38 39 40 41 42 43 44 45 46 47 48 49 50
000
ASUS44 KBMX 111910
RWRAL

ALABAMA REGIONAL WEATHER ROUNDUP
NATIONAL WEATHER SERVICE BIRMINGHAM AL
100 PM CST MON DEC 11 2017

NOTE: "FAIR" INDICATES FEW OR NO CLOUDS BELOW 12,000 FEET
WITH NO SIGNIFICANT WEATHER AND/OR OBSTRUCTIONS TO VISIBILITY.

THE REMARK "TC" DENOTES TEMPERATURE IN DEGREES CELSIUS.

ALZ001>011-014-016>018-020-112000-
NORTH ALABAMA

CITY           SKY/WX    TMP DP  RH WIND       PRES   REMARKS
MUSCLE SHOALS  SUNNY     61  29  29 W13       30.05F
HUNTSVILLE     SUNNY     58  34  40 S9        30.05F
DECATUR        SUNNY     58  32  37 SW7       30.06F
HALEYVILLE     FAIR      59  31  34 VRB6      30.08F
GADSDEN        SUNNY     57  35  43 S7        30.08F
$$

ALZ012-013-022-023-030>036-040>044-112000-
WEST CENTRAL ALABAMA

CITY           SKY/WX    TMP DP  RH WIND       PRES   REMARKS
TUSCALOOSA     SUNNY     60  38  43 SW6       30.11F
DEMOPOLIS        N/A     62  37  39 SW5       30.12F
$$

ALZ015-024>026-033>036-041>044-112000-
CENTRAL ALABAMA

CITY           SKY/WX    TMP DP  RH WIND       PRES   REMARKS
BIRMINGHAM     MOSUNNY   58  32  37 SW7       30.11F
MONTGOMERY     SUNNY     61  35  37 SW9       30.13F
SHELBY CO ARPT SUNNY    N/A N/A N/A S7        30.10F
MAXWELL AFB    SUNNY     61  36  40 S8        30.11F
GREENVILLE     FAIR      64  32  30 SW10      30.12F
SELMA          FAIR      61  36  39 SW10      30.12F
PRATTVILLE     FAIR      60  36  41 S7        30.12F
BESSEMER       FAIR      59  35  40 W5        30.10F
TALLADEGA      FAIR      57  36  46 S3        30.09F
PELL CITY      CLEAR     55  36  47 SW8       30.10F
MARION         FAIR      58  39  49 SW7       30.12F
SYLACAUGA      FAIR      58  41  53 W7        30.11F
$$

ALZ019-021-028-029-037-038-045>048-112000-
EAST CENTRAL ALABAMA

CITY           SKY/WX    TMP DP  RH WIND       PRES   REMARKS
ANNISTON       SUNNY     56  35  45 W8        30.08F
ALEXANDER CITY SUNNY     56  37  47 SW6       30.10F
AUBURN         SUNNY     58  35  42 SW8       30.12F
$$

ALZ051>064-112000-
SOUTHWEST ALABAMA

CITY           SKY/WX    TMP DP  RH WIND       PRES   REMARKS
MOBILE         MOSUNNY   65  37  35 VRB7      30.18F
BROOKLEY FIELD SUNNY     67  41  38 VRB3      30.20F
EVERGREEN      SUNNY     65  35  33 SW10      30.15F
$$

ALZ049-050-065>069-112000-
SOUTHEAST ALABAMA

CITY           SKY/WX    TMP DP  RH WIND       PRES   REMARKS
DOTHAN         SUNNY     61  37  41 SW6       30.18F
OZARK          SUNNY     62  35  36 SW10      30.15F
TROY           SUNNY     62  34  35 W9        30.14F
EUFAULA        FAIR      65  33  30 SW9       30.11F
$$



USA.gov is the U.S. government's official web portal to all federal, state and local government web resources and services.